Regional Weather Roundup
Issued by NWS

Home | Current Version | Previous Version | Text Only | Print | Product List | Glossary Off
Versions: 1 2 3 4 5 6 7 8 9 10 11 12 13 14 15 16 17 18 19 20 21 22 23 24 25 26 27 28 29 30 31 32 33 34 35 36 37 38 39 40 41 42 43 44 45 46 47 48 49 50

000
ASUS43 KLOT 121006
RWRIL

ILLINOIS REGIONAL WEATHER ROUNDUP
NATIONAL WEATHER SERVICE CHICAGO/ROMEOVILLE IL
500 AM CDT SAT JUL 12 2014

NOTE: "FAIR" INDICATES FEW OR NO CLOUDS BELOW 12,000 FEET WITH NO
SIGNIFICANT WEATHER AND/OR OBSTRUCTIONS TO VISIBILITY.

* THESE STATIONS ARE NOT UNDER NWS QUALITY CONTROL. THEY ALSO MAY NOT
  REPORT WEATHER SUCH AS PRECIPITATION OR FOG.

ILZ001-002-007-009-015-016-024-121100-
NORTHWEST ILLINOIS

CITY           SKY/WX    TMP DP  RH WIND       PRES   REMARKS
MOLINE         CLOUDY    74  69  85 SW3       30.00R
STERLING*      MOCLDY    72  66  83 CALM      30.01S
SAVANNA*       MOCLDY    70  65  85 CALM      30.01R
$$

ILZ003-004-008-010-011-017-018-121100-
NORTH CENTRAL ILLINOIS

CITY           SKY/WX    TMP DP  RH WIND       PRES   REMARKS
ROCKFORD       MOCLDY    70  62  76 SE6       30.03S
FREEPORT*      PTCLDY    62  60  93 CALM      30.04S
ROCHELLE*      PTCLDY    69  63  81 S6        30.02S
DE KALB*       CLOUDY    65  63  93 SE8       30.04S
PERU*          CLOUDY    72  65  80 S8        30.02S
$$

ILZ005-006-012>014-019>023-121100-
NORTHEAST ILLINOIS

CITY           SKY/WX    TMP DP  RH WIND       PRES   REMARKS
CHICAGO-OHARE  MOCLDY    73  59  61 S8        30.03F
CHICAGO-MIDWAY MOCLDY    76  61  59 S7        30.04F
AURORA         PTCLDY    70  62  76 SE7       30.03F
LANSING*       MOCLDY    71  60  66 S7        30.06F
JOLIET*        CLOUDY    71  60  67 SE5       30.04F
WAUKEGAN       CLOUDY    72  59  63 S9        30.03F
DUPAGE AIRPORT CLOUDY    72  61  68 SE8       30.03F
KANKAKEE*      RAIN      69  64  83 SE3       30.07S
WHEELING       CLOUDY    73  61  65 S7        30.05F
MORRIS*        PTCLDY    72  65  78 S8        30.03S
ROMEOVILLE*    HVY RAIN  68  62  82 S7        30.05S
NORTHERLY ISL    N/A     73  59  61 S6          N/A
$$

LMZ740>746-121100-
SOUTHERN LAKE MICHIGAN

STATION/POSITION SKY/WX   TEMP    WIND        PRES    VSBY  WAVE
                          AIR SEA DIR/SP/G                  HT/PER
                          (F)     (DEG/KT/KT) (MB)    (MI)  (FT/S)
SOUTHERN BUOY              64 59  160/ 10/ 10 1017.6F         0
WAUKEGAN HARBOR            66     180/  3/  4 1018.3S
HARRISON CRIB              73     170/ 17/ 17   N/A
BURNHAM HARBOR             73     170/  3/  8   N/A
CALUMET HARBOR             74     170/  5/ 10 1018.4F
MICHIGAN CITY              73     140/ 11/ 15   N/A
$$

ILZ025>027-034>036-040-047-049-050-058-095>099-121100-
WEST-CENTRAL ILLINOIS

CITY           SKY/WX    TMP DP  RH WIND       PRES   REMARKS
QUINCY         CLOUDY    77  72  84 SW8       30.04R
GALESBURG*     CLOUDY    74  71  92 S8        30.01S
MACOMB*        MOCLDY    76  72  89 SW8       30.05R
JACKSONVILLE*  CLOUDY    78  73  82 SW7       30.06R HX  81
PITTSFIELD*    CLOUDY    78  72  82 SW8       30.06S HX  80
$$

ILZ028>032-037-038-041>044-048-051>054-059>061-121100-
CENTRAL ILLINOIS

CITY           SKY/WX    TMP DP  RH WIND       PRES   REMARKS
PONTIAC        MOCLDY    70  68  94 S5        30.04F THUNDER
BLOOMINGTON    CLOUDY    71  67  87 S14       30.07S
DECATUR        HVY RAIN  73  70  90 S10       30.09R FOG
PEORIA         MOCLDY    74  68  81 S6        30.02S
LACON*         CLOUDY    73  68  83 S5        30.01S
LINCOLN*       CLOUDY    76  70  83 S8        30.02S
SPRINGFIELD    MOCLDY    78  71  79 SW7       30.05R HX  80
TAYLORVILLE    CLOUDY    72  70  94 S12       30.07R
$$

ILZ033-039-045-046-055>057-062-063-121100-
EAST-CENTRAL ILLINOIS

CITY           SKY/WX    TMP DP  RH WIND       PRES   REMARKS
CHAMPAIGN      CLOUDY    72  66  81 S8        30.09S
RANTOUL*       HVY RAIN  72  65  79 W5        30.10S
MATTOON        MOCLDY    73  65  75 S8        30.09R
PARIS*         CLOUDY    69  65  90 SE5       30.11S
$$

ILZ079-100>102-121100-
SOUTHWEST ILLINOIS

CITY           SKY/WX    TMP DP  RH WIND       PRES   REMARKS
ALTON          CLOUDY    76  74  93 S6        30.08R
BELLEVILLE     CLOUDY    74  73  96 S3        30.08F
CAHOKIA*       CLOUDY    76  71  85 SE3       30.08S
SPARTA*        MOCLDY    73  70  88 S6        30.11S
$$

ILZ064>066-069>071-074>076-080>082-084>086-088>090-092>094-121100-
SOUTH-CENTRAL ILLINOIS

CITY           SKY/WX    TMP DP  RH WIND       PRES   REMARKS
CARBONDALE     MOCLDY    73  68  84 S5        30.11F
CAIRO*         CLEAR     73  68  86 CALM      30.13S
MARION         MOCLDY    73  70  88 S6        30.12F
MT. VERNON     CLOUDY    73  66  78 SW3       30.12S
CENTRALIA*     PTCLDY    73  66  79 S7        30.10S
SALEM*         MOCLDY    77  69  78 S7        30.10F
METROPOLIS*    MOCLDY    68  67  96 CALM      30.13S FOG
$$

ILZ067-068-072-073-078-083-087-091-121100-
SOUTHEAST ILLINOIS

CITY           SKY/WX    TMP DP  RH WIND       PRES   REMARKS
FLORA*         CLOUDY    71  66  84 S5        30.12R
HARRISBURG*    CLOUDY    70  70 100 CALM      30.14R
ROBINSON*      CLOUDY    70  67  90 S3        30.12S
CARMI*         CLOUDY    70  69  96 CALM      30.12S FOG
$$

ABBREVIATIONS USED IN REMARKS
   TC - TEMPERATURE IN CELSIUS
  WCI - WIND CHILL INDEX
   HX - HEAT INDEX
  VSB - VISIBILITY
$$




USA.gov is the U.S. government's official web portal to all federal, state and local government web resources and services.